Regional Weather Roundup
Issued by NWS

Home | Current Version | Previous Version | Text Only | Print | Product List | Glossary On
Versions: 1 2 3 4 5 6 7 8 9 10 11 12 13 14 15 16 17 18 19 20 21 22 23 24 25 26 27 28 29 30 31 32 33 34 35 36 37 38 39 40 41 42 43 44 45 46 47 48 49 50
000
ASUS44 KJAN 191603
RWRMS

MISSISSIPPI HOURLY WEATHER ROUNDUP
NATIONAL WEATHER SERVICE JACKSON MS
1000 AM CST FRI DEC 19 2014

NOTE: "FAIR: INDICATES FEW OR NO CLOUDS BELOW 12,000 FEET WITH NO
SIGNIFICANT WEATHER AND/OR OBSTRUCTIONS TO VISIBILITY.

MSZ001>002-007>008-010>013-018>021-025>028-034>036-191700-
NORTHWEST MISSISSIPPI

CITY           SKY/WX    TMP DP  RH WIND       PRES   REMARKS
CLARKSDALE     CLOUDY    45  41  87 NE12      30.26F
CLEVELAND      FAIR      46  42  88 NE9       30.25R
GREENWOOD      CLOUDY    47  39  74 NE9       30.24R
GREENVILLE     CLOUDY    46  41  82 NE10      30.24R
GRENADA        PTSUNNY   45  37  76 CALM      30.26R
OLIVE BRANCH   PTSUNNY   39  37  93 NE7       30.28R WCI  34
OXFORD         CLOUDY    41  34  75 NE9       30.26F
TUNICA         CLOUDY    43  37  81 NE9       30.28F
$$

MSZ003>006-009-014>017-022>024-029>033-037>039-191700-
NORTHEAST MISSISSIPPI

CITY           SKY/WX    TMP DP  RH WIND       PRES   REMARKS
COLUMBUS AFB   CLOUDY    46  37  71 NE2       30.25R
CORINTH        CLOUDY    41  34  75 NE5       30.26F
GOLDN TRIANGLE CLOUDY    45  37  76 NE7       30.23S
STARKVILLE     PTSUNNY   45  37  76 NE7       30.24S
TUPELO         CLOUDY    44  37  76 E6        30.25S
$$

MSZ040-058-191700-
CENTRAL MISSISSIPPI

CITY           SKY/WX    TMP DP  RH WIND       PRES   REMARKS
JACKSON INTL   CLOUDY    49  36  61 CALM      30.23R
JACKSON HAWKNS LGT RAIN  48  38  68 SE3       30.23R
MERIDIAN KEY   CLOUDY    48  33  56 E5        30.21F
MERIDIAN NAS   CLOUDY    47  35  63 E7        30.22F
RAYMOND        CLOUDY    48  45  87 S5        30.23R
VICKSBURG      RAIN      48  43  82 NE7       30.22R
$$

MSZ059>079-191700-
SOUTH MISSISSIPPI

CITY           SKY/WX    TMP DP  RH WIND       PRES   REMARKS
HATTIESBURG    LGT RAIN  47  42  83 E6        30.20F
MCCOMB         CLOUDY    46  43  89 E9        30.16S
NATCHEZ        CLOUDY    48  45  87 E8        30.17S
PINE BELT      CLOUDY    46  39  76 E6        30.19F
$$

MSZ080>082-191700-
COASTAL MISSISSIPPI

CITY           SKY/WX    TMP DP  RH WIND       PRES   REMARKS
BAY ST LOUIS   LGT RAIN  48  45  87 N7        30.18F
BILOXI         CLOUDY    48  48 100 NE12      30.19F
PASCAGOULA     LGT RAIN  47  45  93 NE5       30.20F
GULFPORT       RAIN      47  45  93 E14       30.18F
$$


USA.gov is the U.S. government's official web portal to all federal, state and local government web resources and services.